• MPC Preparation (Info)

  • MPEC 2017-F169: 2017 FJ101

    The following Minor Planet Electronic Circular may be linked-to from your own Web pages, but must not otherwise be redistributed electronically.

    A form allowing access to any MPEC is at the bottom of this page.


    Read MPEC 2017-F168 Read MPEC 2017-F170


    M.P.E.C. 2017-F169                               Issued 2017 Mar. 29, 02:26 UT
    
         The Minor Planet Electronic Circulars contain information on unusual
             minor planets and routine data on comets.  They are published
        on behalf of Division F of the International Astronomical Union by the
              Minor Planet Center, Smithsonian Astrophysical Observatory,
                              Cambridge, MA 02138, U.S.A.
    
                 Prepared using the Tamkin Foundation Computer Network
    
                                  MPC@CFA.HARVARD.EDU
                URL https://www.minorplanetcenter.net/    ISSN 1523-6714
    
                                      2017 FJ101
    
    Observations:
         K17FA1J* C2017 03 25.47159 12 34 22.057-20 40 28.65         21.4 wLEF169F51
         K17FA1J  C2017 03 25.48204 12 34 21.096-20 39 57.87         21.6 wLEF169F51
         K17FA1J  C2017 03 25.49249 12 34 20.150-20 39 27.33         21.6 wLEF169F51
         K17FA1J  C2017 03 25.50295 12 34 19.223-20 38 55.90         21.8 wLEF169F51
         K17FA1J _C2017 03 26.36372512 35 01.699-19 48 51.42         20.6 GUEF169568
         K17FA1J _C2017 03 26.36471412 35 01.613-19 48 47.50         20.7 GUEF169568
         K17FA1J _C2017 03 26.36570012 35 01.528-19 48 43.70         20.9 GUEF169568
         K17FA1J KC2017 03 29.00900 12 39 02.54 -10 33 26.3          18.7 VUEF169958
         K17FA1J KC2017 03 29.01344 12 39 02.42 -10 30 40.8          18.3 VUEF169958
         K17FA1J KC2017 03 29.02534 12 39 01.87 -10 23 14.0          18.4 VUEF169958
    
    Observer details:
    568 Mauna Kea.  Observers R. J. Wainscoat, P. Forshay.  Measurers M. Micheli,
        R. J. Wainscoat.  3.6-m Canada-France-Hawaii Telescope + CCD.
    958 Observatoire de Dax.  Observers P. Dupouy, J. B. de Vanssay.  Measurer
        P. Dupouy.  0.43-m f/2.7 reflector + CCD.
    F51 Pan-STARRS 1, Haleakala.  Observers B. Gibson, T. Goggia, S. Kahale,
        T. Lowe, A. Schultz, M. Willman.  Measurers K. Chambers, S. Chastel,
        L. Denneau, H. Flewelling, M. Huber, E. Lilly, E. Magnier, R. Wainscoat,
        C. Waters, R. Weryk.  1.8-m Ritchey-Chretien + CCD.
    
    Orbital elements:
    2017 FJ101                                               Earth MOID = 0.0021 AU
    Epoch 2017 Feb. 16.0 TT = JDT 2457800.5                 MPC
    M 255.27042              (2000.0)            P               Q
    n   0.93546927     Peri.  104.45088     +0.39162556     +0.91991326
    a   1.0354196      Node   188.68286     -0.88650479     +0.37148802
    e   0.3312408      Incl.    7.50712     -0.24645218     +0.12552388
    P   1.05           H   28.0           G   0.15           U   7
    Residuals in seconds of arc
    170325 F51  0.0   0.2-    170326 568  0.0   0.0     170329 958  0.5+  0.4+
    170325 F51  0.0   0.3+    170326 568  0.0   0.0     170329 958  0.0   0.1-
    170325 F51  0.0   0.0     170326 568  0.0   0.0
    170325 F51  0.0   0.0     170329 958  0.5-  0.4-
    
    Ephemeris:
    2017 FJ101               a,e,i = 1.04, 0.33, 8                   q = 0.6924
    Date    TT    R. A. (2000) Decl.     Delta      r     Elong.  Phase     V
    2017 02 27    12 26 43.1 -21 27 30   0.2153  1.1641   140.2    33.0    26.4
    ...
    2017 03 14    12 31 54.9 -22 43 36   0.1079  1.0899   151.2    26.1    24.5
    ...
    2017 03 22    12 33 28.1 -22 08 34   0.05435 1.0467   157.3    21.6    22.8
    ...
    2017 03 28    12 36 23.2 -16 24 56   0.01526 1.0129   166.3    13.5    19.7
    2017 03 29    12 38 59.0 -10 26 04   0.0088881.0072   172.5     7.4    18.3
    2017 03 30    12 52 22.6 +21 06 26   0.0030421.0014   154.8    25.1    16.6
    ...
    2017 04 05    00 31 19.5 +26 50 41   0.03690 0.9662    21.7   157.5    30.9
    ...
    2017 04 13    00 32 57.3 +24 25 19   0.08996 0.9185    19.9   158.2    33.0
    ...
    2017 04 28    00 40 14.0 +22 23 00   0.1997  0.8307    25.3   148.8    32.3
    
    A. U. Tomatic                (C) Copyright 2017 MPC           M.P.E.C. 2017-F169
    

    Read MPEC 2017-F168 Read MPEC 2017-F170


    MPEC number:

    Enter an MPEC number in one of the following forms:

    • 1997-B01 (the full form)
    • J97B01 (the packed version of the full form)
    • B01 (the abbreviated form)